Niagara Falls, NY

4:39 AM EDT on May 24, 2017 (GMT -0400)
Niagara Falls International

Weather History for KIAG - March, 2012

Change the Weather History Date:

Tuesday, March 13, 2012

  Actual Average Record
Temperature  
Mean Temperature 52 °F -  
Max Temperature 60 °F 36 °F 60 °F (2006)
Min Temperature 45 °F 21 °F 3 °F (2014)
Degree Days  
Heating Degree Days 12    
Growing Degree Days 2 (Base 50)    
Moisture  
Dew Point 47 °F    
Average Humidity 80    
Maximum Humidity 94    
Minimum Humidity 62    
Precipitation  
Precipitation 0.05 in - - ()
Sea Level Pressure  
Sea Level Pressure 29.91 in    
Wind  
Wind Speed 15 mph (SW)    
Max Wind Speed 23 mph    
Max Gust Speed 34 mph    
Visibility 9 miles    
Events Rain    
Averages and records for this station are not official NWS values.
T = Trace of Precipitation, MM = Missing Value Source: NWS Daily Summary

Daily Weather History Graph

Daily Weather History Graph

Search for Another Location

Airport or City:

Trip Planner

Search our weather history database for the weather conditions in past years. The results will help you decide how hot, cold, wet, or windy it might be!

Date:

Astronomy

Mar. 13, 2012 Rise Set
Actual Time 7:30 AM EDT 7:20 PM EDT
Civil Twilight 7:02 AM EDT 7:48 PM EDT
Nautical Twilight 6:29 AM EDT 8:21 PM EDT
Astronomical Twilight 5:55 AM EDT 8:55 PM EDT
Moon 1:00 AM EDT (3/13) 10:31 AM EDT (3/13)
Length of Visible Light 12h 46m
Length of Day
11h 49m
Waning Gibbous, 66% of the Moon is Illuminated
Mar 13
Waning Gibbous
Mar 14
Last Quarter
Mar 22
New
Mar 30
First Quarter
Apr 6
Full

Hourly Weather History & Observations

Time (EDT) Temp. Windchill Dew Point Humidity Pressure Visibility Wind Dir Wind Speed Gust Speed Precip Events Conditions
12:15 AM 55.4 °F - 50.0 °F 82% 29.88 in 10.0 mi SSW 16.1 mph - N/A   Overcast
12:53 AM 55.9 °F - 50.0 °F 80% 29.88 in 10.0 mi South 18.4 mph 26.5 mph N/A   Overcast
1:53 AM 57.0 °F - 51.1 °F 81% 29.85 in 10.0 mi SSW 17.3 mph - N/A   Overcast
2:16 AM 57.2 °F - 51.8 °F 82% 29.84 in 10.0 mi SSW 13.8 mph - N/A   Overcast
2:53 AM 57.9 °F - 51.1 °F 78% 29.85 in 10.0 mi SW 16.1 mph 25.3 mph N/A   Overcast
3:53 AM 57.0 °F - 51.1 °F 81% 29.85 in 10.0 mi WSW 18.4 mph 31.1 mph 0.01 in   Overcast
4:02 AM 55.4 °F - 50.0 °F 82% 29.83 in 10.0 mi WSW 21.9 mph 34.5 mph 0.00 in Rain Light Rain
4:40 AM 53.6 °F - 48.2 °F 82% 29.84 in 10.0 mi WSW 11.5 mph 21.9 mph 0.00 in   Overcast
4:53 AM 54.0 °F - 48.9 °F 83% 29.85 in 10.0 mi SW 15.0 mph - 0.00 in   Overcast
5:26 AM 53.6 °F - 50.0 °F 88% 29.83 in 8.0 mi SW 15.0 mph - 0.00 in Rain Light Rain
5:53 AM 53.1 °F - 50.0 °F 89% 29.84 in 5.0 mi SSW 15.0 mph - 0.03 in Rain Rain
6:41 AM 51.8 °F - 50.0 °F 94% 29.87 in 7.0 mi WSW 11.5 mph - 0.01 in   Overcast
6:53 AM 52.0 °F - 50.0 °F 93% 29.89 in 7.0 mi West 9.2 mph - 0.01 in   Overcast
7:04 AM 51.8 °F - 48.2 °F 88% 29.87 in 7.0 mi WSW 10.4 mph - N/A   Mostly Cloudy
7:36 AM 50.0 °F - 48.2 °F 94% 29.89 in 6.0 mi West 9.2 mph - N/A   Scattered Clouds
7:53 AM 50.0 °F - 48.0 °F 93% 29.91 in 6.0 mi WSW 10.4 mph - N/A   Scattered Clouds
8:10 AM 51.8 °F - 48.2 °F 88% 29.89 in 5.0 mi WSW 12.7 mph - N/A   Scattered Clouds
8:53 AM 51.1 °F - 48.9 °F 92% 29.92 in 5.0 mi WSW 12.7 mph - N/A   Scattered Clouds
9:53 AM 54.0 °F - 48.9 °F 83% 29.94 in 8.0 mi WSW 11.5 mph - N/A   Scattered Clouds
10:53 AM 50.0 °F - 46.9 °F 89% 29.95 in 8.0 mi SSW 11.5 mph - N/A   Scattered Clouds
11:53 AM 55.9 °F - 46.9 °F 72% 29.94 in 10.0 mi SW 15.0 mph - N/A   Scattered Clouds
12:53 PM 57.9 °F - 46.9 °F 67% 29.94 in 10.0 mi SW 17.3 mph - N/A   Scattered Clouds
1:53 PM 59.0 °F - 46.9 °F 64% 29.92 in 10.0 mi SW 23.0 mph 33.4 mph N/A   Scattered Clouds
2:53 PM 60.1 °F - 46.9 °F 62% 29.90 in 10.0 mi SW 18.4 mph 28.8 mph N/A   Scattered Clouds
3:53 PM 57.9 °F - 46.9 °F 67% 29.90 in 10.0 mi WSW 21.9 mph 34.5 mph N/A   Mostly Cloudy
4:53 PM 57.9 °F - 46.9 °F 67% 29.92 in 10.0 mi SW 20.7 mph 28.8 mph N/A   Overcast
5:53 PM 57.9 °F - 46.9 °F 67% 29.93 in 10.0 mi WSW 17.3 mph 27.6 mph N/A   Mostly Cloudy
6:53 PM 55.0 °F - 46.0 °F 72% 29.96 in 10.0 mi SW 15.0 mph - N/A   Mostly Cloudy
7:53 PM 53.1 °F - 45.0 °F 74% 29.98 in 10.0 mi WSW 10.4 mph - N/A   Mostly Cloudy
8:53 PM 48.0 °F - 42.1 °F 80% 30.01 in 10.0 mi WSW 8.1 mph - N/A   Partly Cloudy
9:53 PM 45.0 °F 41.8 °F 39.9 °F 82% 30.03 in 10.0 mi WSW 5.8 mph - N/A   Clear
10:53 PM 45.0 °F 40.6 °F 35.1 °F 68% 30.05 in 10.0 mi WNW 8.1 mph - N/A   Clear
11:53 PM 46.0 °F 40.6 °F 35.1 °F 66% 30.07 in 10.0 mi North 11.5 mph - N/A   Clear